Miscellaneous Local Product
Issued by NWS Hastings, NE

Home | Current Version | Previous Version | Text Only | Print | Product List | Glossary Off
Versions: 1 2 3 4 5 6 7 8 9 10 11 12 13 14 15 16 17 18 19 20 21 22 23 24 25 26 27 28 29 30 31 32 33 34 35 36 37 38 39 40 41 42 43 44 45 46 47 48 49 50

000
AXUS43 KGID 222002
MISGRI

GID CWA HOURLY WEATHER ROUNDUP
NATIONAL WEATHER SERVICE HASTINGS NE
200 PM CST WED FEB 22 2017

NOTE: "FAIR" INDICATES FEW OR NO CLOUDS BELOW 12,000 FEET WITH NO
SIGNIFICANT WEATHER AND/OR OBSTRUCTIONS TO VISIBILITY.

...SOUTH CENTRAL NEBRASKA...

CITY           SKY/WX    TMP DP  RH WIND       PRES   REMARKS
GRAND ISLAND   SUNNY     70  28  21 NW20G28   29.70F
HASTINGS       SUNNY     71  27  19 NW16      29.71F
KEARNEY        SUNNY     70  25  18 NW12G18   29.73F
ORD            SUNNY     66  27  23 NW22      29.71F
YORK           SUNNY     72  32  23 NW22      29.67F
AURORA         SUNNY     71  30  22 N14G23    29.69F
LEXINGTON      SUNNY     67  24  19 NW14G21   29.75F
HOLDREGE       SUNNY     68  22  17 NW10G21   29.74S
HEBRON         SUNNY     75  26  16 NW7G16    29.68S

...NEBRASKA PANHANDLE...

CITY           SKY/WX    TMP DP  RH WIND       PRES   REMARKS
CHADRON        SUNNY     57  20  23 W23G32    29.78F
ALLIANCE       SUNNY     56  20  24 NW25G35   29.77F
SCOTTSBLUFF    CLOUDY    56  18  22 W22G29    29.81F
SIDNEY         SUNNY     59  14  17 NW15      29.80F

...WESTERN AND NORTH CENTRAL NEBRASKA...

CITY           SKY/WX    TMP DP  RH WIND       PRES   REMARKS
VALENTINE      MOSUNNY   60  28  29 NW15      29.75F
AINSWORTH      MOSUNNY   59  33  38 NW13G18   29.75S
ONEILL         SUNNY     63  31  30 NW21G30   29.72S
BROKEN BOW     SUNNY     66  21  18 NW17      29.73F
IMPERIAL       SUNNY     63  18  17 W9        29.78F
NORTH PLATTE   SUNNY     65  21  18 NW12G21   29.77F
MCCOOK         SUNNY     67  25  20 NW12      29.77F

...EASTERN NEBRASKA...

CITY           SKY/WX    TMP DP  RH WIND       PRES   REMARKS
NORFOLK        SUNNY     67  32  27 NW21      29.66S
SO SIOUX CITY  SUNNY     68  39  34 NW18      29.63R
TEKAMAH        SUNNY     70  38  31 NW24      29.63R
COLUMBUS       SUNNY     72  30  21 NW20G25   29.68S
ALBION         SUNNY     68  30  24 NW15G26   29.69S
OMAHA EPPLEY   MOSUNNY   74  40  29 NW12G21   29.62F
OFFUTT AFB     SUNNY     73  39  28 NW10      29.62F
MILLARD        SUNNY     74  43  32 NW8       29.64S
LINCOLN        SUNNY     75  36  24 NW12      29.65F
NEBRASKA CITY  SUNNY     71  26  18 NW8       29.65F
BEATRICE       SUNNY     76  37  23 NW13      29.65F
FALLS CITY     SUNNY     76  35  22 NW10G20   29.63F

...NORTHERN KANSAS...

CITY           SKY/WX    TMP DP  RH WIND       PRES   REMARKS
GOODLAND       SUNNY     63  21  20 N8G17     29.80F
HILL CITY      SUNNY     73  27  18 VRB7G17   29.75F
NORTON         CLEAR     68  12  11 NW9       29.75F
PHILLIPSBURG   SUNNY     73  28  19 W13       29.72F
SMITH CENTER   SUNNY     75  32  20 NW10G16   29.71F
HAYS             N/A     69  34  27 N5        29.75F
RUSSELL        CLOUDY    73  32  22 N12       29.71F
CONCORDIA      SUNNY     75  35  23 W9        29.67F
SALINA         SUNNY     78  28  16 W9        29.69F
TOPEKA         SUNNY     77  36  22 SW8       29.65F



USA.gov is the U.S. government's official web portal to all federal, state and local government web resources and services.